Terminal Aerodrome Forecast
Issued by NWS

Home | Current Version | Previous Version | Text Only | Print | Product List | Glossary On
Versions: 1 2 3 4 5 6 7 8 9 10 11 12 13 14 15 16 17 18 19 20 21 22 23 24 25 26 27
000
FTUS43 KDLH 200900 AAA
TAFHYR
TAF AMD
KHYR 200900Z 2009/2106 VRB03KT P6SM BKN100
     FM201400 VRB05KT P6SM SCT030=

USA.gov is the U.S. government's official web portal to all federal, state and local government web resources and services.